| time (UTC) | temp C | wind direction | speed KPH | gust KPH | rain 1hr cm | rain 24hr cm | rain mn cm | humidity % | barometer mb |
| 20260504214719 | 17 | 35 | 3.2 | 6.4 | 0.00 | 0.00 | 0.00 | 66 | 1002.1 |
| 20260504214218 | 18 | 18 | 0.0 | 0.0 | 0.00 | 0.00 | 0.00 | 63 | 1002.1 |
| 20260504213716 | 18 | 18 | 4.8 | 6.4 | 0.00 | 0.00 | 0.00 | 63 | 1002.1 |
| 20260504213216 | 18 | 42 | 4.8 | 6.4 | 0.00 | 0.00 | 0.00 | 63 | 1002.0 |
| 20260504212715 | 18 | 318 | 4.8 | 6.4 | 0.00 | 0.00 | 0.00 | 62 | 1002.0 |
| 20260504212214 | 18 | 54 | 3.2 | 4.8 | 0.00 | 0.00 | 0.00 | 63 | 1002.1 |
| 20260504211713 | 18 | 48 | 3.2 | 6.4 | 0.00 | 0.00 | 0.00 | 62 | 1002.1 |
| 20260504211212 | 18 | 352 | 1.6 | 4.8 | 0.00 | 0.00 | 0.00 | 62 | 1002.0 |
| 20260504210711 | 18 | 308 | 1.6 | 3.2 | 0.00 | 0.00 | 0.00 | 61 | 1001.9 |
| 20260504210210 | 18 | 350 | 3.2 | 6.4 | 0.00 | 0.00 | 0.00 | 60 | 1001.9 |
| 20260504205709 | 19 | 30 | 1.6 | 4.8 | 0.00 | 0.00 | 0.00 | 60 | 1001.9 |
| 20260504205208 | 18 | 329 | 0.0 | 3.2 | 0.00 | 0.00 | 0.00 | 60 | 1001.9 |
| 20260504204707 | 19 | 312 | 1.6 | 4.8 | 0.00 | 0.00 | 0.00 | 60 | 1001.9 |
| 20260504204206 | 19 | 285 | 1.6 | 3.2 | 0.00 | 0.00 | 0.00 | 59 | 1001.9 |
| 20260504203705 | 19 | 294 | 1.6 | 3.2 | 0.00 | 0.00 | 0.00 | 58 | 1002.0 |
| 20260504203205 | 19 | 300 | 0.0 | 1.6 | 0.00 | 0.00 | 0.00 | 59 | 1002.0 |
| 20260504202704 | 19 | 30 | 3.2 | 3.2 | 0.00 | 0.00 | 0.00 | 58 | 1001.9 |
| 20260504202202 | 18 | 356 | 3.2 | 6.4 | 0.00 | 0.00 | 0.00 | 58 | 1001.9 |
| 20260504201701 | 18 | 252 | 0.0 | 3.2 | 0.00 | 0.00 | 0.00 | 61 | 1001.9 |
| 20260504201201 | 18 | 343 | 0.0 | 0.0 | 0.00 | 0.00 | 0.00 | 61 | 1001.9 |
| 20260504200700 | 18 | 133 | 0.0 | 0.0 | 0.00 | 0.00 | 0.00 | 63 | 1001.9 |
| 20260504200159 | 18 | 136 | 0.0 | 0.0 | 0.00 | 0.00 | 0.00 | 63 | 1001.9 |
| 20260504195658 | 18 | 118 | 0.0 | 0.0 | 0.00 | 0.00 | 0.00 | 62 | 1001.9 |
| 20260504195157 | 18 | 119 | 0.0 | 0.0 | 0.00 | 0.00 | 0.00 | 62 | 1001.9 |
| 20260504194656 | 18 | 119 | 0.0 | 0.0 | 0.00 | 0.00 | 0.00 | 63 | 1001.9 |
| 20260504194155 | 18 | 125 | 0.0 | 0.0 | 0.00 | 0.00 | 0.00 | 62 | 1001.9 |
| 20260504193654 | 19 | 98 | 0.0 | 0.0 | 0.00 | 0.00 | 0.00 | 61 | 1001.9 |
| 20260504193153 | 19 | 92 | 0.0 | 0.0 | 0.00 | 0.00 | 0.00 | 60 | 1001.9 |
| 20260504192653 | 18 | 91 | 0.0 | 0.0 | 0.00 | 0.00 | 0.00 | 61 | 1001.8 |
| 20260504192152 | 18 | 96 | 0.0 | 0.0 | 0.00 | 0.00 | 0.00 | 62 | 1001.8 |
| 20260504191650 | 19 | 96 | 0.0 | 0.0 | 0.00 | 0.00 | 0.00 | 59 | 1001.8 |
| 20260504191149 | 19 | 78 | 0.0 | 0.0 | 0.00 | 0.00 | 0.00 | 59 | 1001.8 |
| 20260504190649 | 19 | 70 | 0.0 | 0.0 | 0.00 | 0.00 | 0.00 | 59 | 1001.8 |
| 20260504190147 | 19 | 79 | 0.0 | 0.0 | 0.00 | 0.00 | 0.00 | 58 | 1001.8 |
| 20260504185647 | 19 | 121 | 0.0 | 0.0 | 0.00 | 0.00 | 0.00 | 57 | 1001.8 |
| 20260504185145 | 19 | 122 | 0.0 | 0.0 | 0.00 | 0.00 | 0.00 | 57 | 1001.8 |
| 20260504184645 | 20 | 125 | 0.0 | 0.0 | 0.00 | 0.00 | 0.00 | 57 | 1001.8 |
| 20260504184144 | 20 | 125 | 0.0 | 0.0 | 0.00 | 0.00 | 0.00 | 56 | 1001.8 |
| 20260504183643 | 20 | 136 | 0.0 | 0.0 | 0.00 | 0.00 | 0.00 | 56 | 1001.7 |
| 20260504183142 | 20 | 119 | 0.0 | 0.0 | 0.00 | 0.00 | 0.00 | 54 | 1001.7 |
| 20260504182641 | 20 | 119 | 0.0 | 0.0 | 0.00 | 0.00 | 0.00 | 53 | 1001.7 |
| 20260504182139 | 21 | 102 | 0.0 | 0.0 | 0.00 | 0.00 | 0.00 | 53 | 1001.6 |
| 20260504181638 | 21 | 145 | 0.0 | 0.0 | 0.00 | 0.00 | 0.00 | 52 | 1001.6 |
| 20260504181138 | 21 | 288 | 0.0 | 0.0 | 0.00 | 0.00 | 0.00 | 52 | 1001.6 |
| 20260504180637 | 21 | 30 | 0.0 | 3.2 | 0.00 | 0.00 | 0.00 | 50 | 1001.5 |
| 20260504180136 | 21 | 356 | 0.0 | 0.0 | 0.00 | 0.00 | 0.00 | 50 | 1001.6 |
| 20260504175635 | 21 | 352 | 1.6 | 4.8 | 0.00 | 0.00 | 0.00 | 49 | 1001.6 |
| 20260504175134 | 21 | 269 | 1.6 | 6.4 | 0.00 | 0.00 | 0.00 | 48 | 1001.6 |
| 20260504174633 | 21 | 0 | 3.2 | 4.8 | 0.00 | 0.00 | 0.00 | 48 | 1001.5 |
| 20260504174133 | 21 | 337 | 3.2 | 6.4 | 0.00 | 0.00 | 0.00 | 47 | 1001.5 |
| 20260504173632 | 21 | 312 | 3.2 | 6.4 | 0.00 | 0.00 | 0.00 | 48 | 1001.5 |
| 20260504173131 | 21 | 258 | 3.2 | 4.8 | 0.00 | 0.00 | 0.00 | 48 | 1001.5 |
| 20260504172630 | 21 | 279 | 3.2 | 6.4 | 0.00 | 0.00 | 0.00 | 48 | 1001.5 |
| 20260504172129 | 21 | 240 | 6.4 | 9.7 | 0.00 | 0.00 | 0.00 | 48 | 1001.5 |
| 20260504171628 | 21 | 270 | 6.4 | 11.3 | 0.00 | 0.00 | 0.00 | 48 | 1001.5 |
| 20260504171127 | 21 | 282 | 4.8 | 6.4 | 0.00 | 0.00 | 0.00 | 47 | 1001.5 |
| 20260504170626 | 21 | 302 | 4.8 | 11.3 | 0.00 | 0.00 | 0.00 | 47 | 1001.5 |
| 20260504170125 | 22 | 316 | 4.8 | 9.7 | 0.00 | 0.00 | 0.00 | 47 | 1001.6 |
| 20260504160114 | 22 | 313 | 6.4 | 11.3 | 0.00 | 0.00 | 0.00 | 45 | 1001.6 |
| 20260504151105 | 23 | 326 | 8.0 | 16.1 | 0.00 | 0.00 | 0.00 | 44 | 1001.6 |
| 20260504150604 | 22 | 284 | 6.4 | 14.5 | 0.00 | 0.00 | 0.00 | 44 | 1001.7 |
| 20260504150103 | 22 | 319 | 6.4 | 16.1 | 0.00 | 0.00 | 0.00 | 44 | 1001.7 |
| 20260504141053 | 23 | 216 | 6.4 | 8.0 | 0.00 | 0.00 | 0.00 | 40 | 1001.8 |
| 20260504140552 | 23 | 180 | 8.0 | 9.7 | 0.00 | 0.00 | 0.00 | 40 | 1002.0 |
| 20260504130542 | 23 | 258 | 12.9 | 19.3 | 0.00 | 0.00 | 0.00 | 40 | 1002.3 |
| 20260504110519 | 22 | 233 | 9.7 | 17.7 | 0.00 | 0.00 | 0.00 | 43 | 1002.8 |
| 20260504100509 | 22 | 205 | 4.8 | 8.0 | 0.00 | 0.00 | 0.00 | 46 | 1003.3 |
| 20260504081949 | 20 | 197 | 1.6 | 4.8 | 0.00 | 0.00 | 0.00 | 50 | 1002.9 |
| 20260504081448 | 20 | 163 | 4.8 | 9.7 | 0.00 | 0.00 | 0.00 | 50 | 1002.9 |
| 20260504080948 | 20 | 234 | 4.8 | 8.0 | 0.00 | 0.00 | 0.00 | 51 | 1003.1 |
| 20260504080447 | 20 | 216 | 4.8 | 9.7 | 0.00 | 0.00 | 0.00 | 51 | 1002.9 |
| 20260504050413 | 14 | 234 | 3.2 | 4.8 | 0.00 | 0.00 | 0.00 | 61 | 1002.3 |
| 20260504045912 | 14 | 238 | 1.6 | 3.2 | 0.00 | 0.00 | 0.00 | 61 | 1002.2 |
| 20260504045410 | 13 | 217 | 1.6 | 4.8 | 0.00 | 0.00 | 0.00 | 61 | 1002.2 |
| 20260504044910 | 13 | 216 | 1.6 | 3.2 | 0.00 | 0.00 | 0.00 | 61 | 1002.1 |
| 20260504044408 | 13 | 210 | 0.0 | 3.2 | 0.00 | 0.00 | 0.00 | 61 | 1002.0 |
| 20260504043907 | 13 | 233 | 0.0 | 3.2 | 0.00 | 0.00 | 0.00 | 61 | 1002.0 |
| 20260504043406 | 13 | 180 | 1.6 | 4.8 | 0.00 | 0.00 | 0.00 | 61 | 1002.0 |
| 20260504042905 | 12 | 172 | 0.0 | 1.6 | 0.00 | 0.00 | 0.00 | 63 | 1002.0 |
| 20260504042405 | 12 | 198 | 1.6 | 3.2 | 0.00 | 0.00 | 0.00 | 63 | 1002.0 |
| 20260504041904 | 12 | 222 | 3.2 | 4.8 | 0.00 | 0.00 | 0.00 | 64 | 1001.9 |
| 20260504041403 | 12 | 198 | 3.2 | 6.4 | 0.00 | 0.00 | 0.00 | 64 | 1001.9 |
| 20260504040902 | 12 | 234 | 0.0 | 0.0 | 0.00 | 0.00 | 0.00 | 64 | 1001.8 |
| 20260504040401 | 12 | 162 | 0.0 | 4.8 | 0.00 | 0.00 | 0.00 | 64 | 1001.8 |
| 20260504035900 | 12 | 252 | 3.2 | 6.4 | 0.00 | 0.00 | 0.00 | 64 | 1001.7 |
| 20260504035359 | 12 | 200 | 0.0 | 3.2 | 0.00 | 0.00 | 0.00 | 63 | 1001.6 |
| 20260504034858 | 12 | 192 | 1.6 | 4.8 | 0.00 | 0.00 | 0.00 | 62 | 1001.7 |
| 20260504034357 | 12 | 198 | 1.6 | 4.8 | 0.00 | 0.00 | 0.00 | 63 | 1001.6 |
| 20260504033856 | 12 | 222 | 1.6 | 3.2 | 0.00 | 0.00 | 0.00 | 64 | 1001.6 |
| 20260504033356 | 12 | 186 | 1.6 | 3.2 | 0.00 | 0.00 | 0.00 | 63 | 1001.6 |
| 20260504032854 | 12 | 154 | 0.0 | 3.2 | 0.00 | 0.00 | 0.00 | 63 | 1001.6 |
| 20260504032354 | 12 | 137 | 1.6 | 3.2 | 0.00 | 0.00 | 0.00 | 62 | 1001.5 |
| 20260504031853 | 12 | 127 | 1.6 | 4.8 | 0.00 | 0.00 | 0.00 | 62 | 1001.5 |
| 20260504031352 | 12 | 144 | 1.6 | 3.2 | 0.00 | 0.00 | 0.00 | 62 | 1001.4 |
| 20260504030851 | 12 | 150 | 3.2 | 4.8 | 0.00 | 0.00 | 0.00 | 61 | 1001.5 |
| 20260504030350 | 12 | 198 | 3.2 | 6.4 | 0.00 | 0.00 | 0.00 | 61 | 1001.5 |
| 20260504025849 | 13 | 132 | 1.6 | 4.8 | 0.00 | 0.00 | 0.00 | 60 | 1001.6 |
| 20260504025348 | 13 | 194 | 3.2 | 6.4 | 0.00 | 0.00 | 0.00 | 60 | 1001.6 |
| 20260504024848 | 13 | 162 | 1.6 | 3.2 | 0.00 | 0.00 | 0.00 | 60 | 1001.5 |
| 20260504024346 | 13 | 167 | 1.6 | 6.4 | 0.00 | 0.00 | 0.00 | 60 | 1001.6 |
| 20260504023846 | 13 | 211 | 4.8 | 6.4 | 0.00 | 0.00 | 0.00 | 59 | 1001.6 |
| 20260504023345 | 13 | 174 | 3.2 | 4.8 | 0.00 | 0.00 | 0.00 | 59 | 1001.6 |
| 20260504022844 | 13 | 171 | 4.8 | 8.0 | 0.00 | 0.00 | 0.00 | 59 | 1001.6 |
| 20260504022343 | 13 | 168 | 3.2 | 8.0 | 0.00 | 0.00 | 0.00 | 59 | 1001.6 |
| 20260504021842 | 12 | 144 | 3.2 | 4.8 | 0.00 | 0.00 | 0.00 | 60 | 1001.6 |
| 20260504021341 | 12 | 172 | 1.6 | 3.2 | 0.00 | 0.00 | 0.00 | 60 | 1001.6 |
| 20260504020840 | 13 | 136 | 0.0 | 3.2 | 0.00 | 0.00 | 0.00 | 60 | 1001.7 |
| 20260504020339 | 13 | 159 | 0.0 | 3.2 | 0.00 | 0.00 | 0.00 | 60 | 1001.8 |
| 20260504015838 | 12 | 200 | 0.0 | 0.0 | 0.00 | 0.00 | 0.00 | 61 | 1001.8 |
| 20260504015337 | 13 | 136 | 0.0 | 0.0 | 0.00 | 0.00 | 0.00 | 61 | 1001.8 |
| 20260504014836 | 13 | 132 | 0.0 | 0.0 | 0.00 | 0.00 | 0.00 | 59 | 1001.8 |
| 20260504014335 | 13 | 168 | 0.0 | 0.0 | 0.00 | 0.00 | 0.00 | 58 | 1001.8 |
| 20260504013835 | 13 | 204 | 0.0 | 0.0 | 0.00 | 0.00 | 0.00 | 57 | 1001.8 |
| 20260504013333 | 14 | 176 | 0.0 | 1.6 | 0.00 | 0.00 | 0.00 | 55 | 1001.6 |
| 20260504012833 | 14 | 156 | 0.0 | 0.0 | 0.00 | 0.00 | 0.00 | 55 | 1001.7 |
| 20260504012332 | 15 | 246 | 1.6 | 4.8 | 0.00 | 0.00 | 0.00 | 53 | 1001.6 |
| 20260504011830 | 15 | 150 | 1.6 | 6.4 | 0.00 | 0.00 | 0.00 | 53 | 1001.6 |
| 20260504011330 | 15 | 210 | 3.2 | 6.4 | 0.00 | 0.00 | 0.00 | 53 | 1001.6 |
| 20260504010828 | 15 | 186 | 3.2 | 6.4 | 0.00 | 0.00 | 0.00 | 53 | 1001.5 |
| 20260504010328 | 15 | 156 | 3.2 | 8.0 | 0.00 | 0.00 | 0.00 | 53 | 1001.5 |
| 20260504005827 | 15 | 144 | 1.6 | 4.8 | 0.00 | 0.00 | 0.00 | 53 | 1001.4 |
| 20260504005325 | 15 | 162 | 1.6 | 6.4 | 0.00 | 0.00 | 0.00 | 53 | 1001.4 |
| 20260504004825 | 15 | 154 | 3.2 | 6.4 | 0.00 | 0.00 | 0.00 | 52 | 1001.5 |
| 20260504004324 | 15 | 149 | 4.8 | 6.4 | 0.00 | 0.00 | 0.00 | 52 | 1001.4 |
| 20260504003823 | 15 | 198 | 3.2 | 6.4 | 0.00 | 0.00 | 0.00 | 51 | 1001.4 |
| 20260504003322 | 15 | 165 | 3.2 | 6.4 | 0.00 | 0.00 | 0.00 | 51 | 1001.3 |
| 20260504002821 | 15 | 127 | 3.2 | 6.4 | 0.00 | 0.00 | 0.00 | 52 | 1001.4 |
| 20260504002320 | 15 | 155 | 3.2 | 6.4 | 0.00 | 0.00 | 0.00 | 52 | 1001.4 |
| 20260504001819 | 15 | 162 | 1.6 | 6.4 | 0.00 | 0.00 | 0.00 | 52 | 1001.4 |
| 20260504001318 | 15 | 120 | 1.6 | 3.2 | 0.00 | 0.00 | 0.00 | 51 | 1001.5 |
| 20260504000818 | 15 | 165 | 1.6 | 4.8 | 0.00 | 0.00 | 0.00 | 51 | 1001.5 |
| 20260504000317 | 15 | 157 | 1.6 | 4.8 | 0.00 | 0.00 | 0.00 | 51 | 1001.5 |
| 20260503235815 | 15 | 210 | 3.2 | 6.4 | 0.00 | 0.00 | 0.00 | 50 | 1001.5 |
| 20260503235314 | 16 | 213 | 3.2 | 6.4 | 0.00 | 0.00 | 0.00 | 50 | 1001.5 |
| 20260503234814 | 16 | 174 | 0.0 | 0.0 | 0.00 | 0.00 | 0.00 | 49 | 1001.4 |
| 20260503234313 | 16 | 160 | 3.2 | 4.8 | 0.00 | 0.00 | 0.00 | 49 | 1001.5 |
| 20260503233812 | 16 | 151 | 4.8 | 8.0 | 0.00 | 0.00 | 0.00 | 48 | 1001.5 |
| 20260503233311 | 16 | 176 | 4.8 | 8.0 | 0.00 | 0.00 | 0.00 | 47 | 1001.4 |
| 20260503232810 | 16 | 228 | 4.8 | 8.0 | 0.00 | 0.00 | 0.00 | 47 | 1001.5 |
| 20260503232309 | 16 | 149 | 4.8 | 9.7 | 0.00 | 0.00 | 0.00 | 47 | 1001.5 |
| 20260503231809 | 16 | 166 | 4.8 | 8.0 | 0.00 | 0.00 | 0.00 | 47 | 1001.5 |
| 20260503231308 | 17 | 234 | 4.8 | 8.0 | 0.00 | 0.00 | 0.00 | 47 | 1001.5 |
| 20260503230806 | 17 | 172 | 4.8 | 11.3 | 0.00 | 0.00 | 0.00 | 47 | 1001.5 |
| 20260503230306 | 17 | 174 | 4.8 | 8.0 | 0.00 | 0.00 | 0.00 | 46 | 1001.6 |
| 20260503225805 | 17 | 160 | 4.8 | 9.7 | 0.00 | 0.00 | 0.00 | 46 | 1001.5 |
| 20260503225305 | 17 | 188 | 6.4 | 9.7 | 0.00 | 0.00 | 0.00 | 45 | 1001.5 |
| 20260503224803 | 17 | 174 | 4.8 | 8.0 | 0.00 | 0.00 | 0.00 | 45 | 1001.5 |
| 20260503224302 | 17 | 160 | 4.8 | 9.7 | 0.00 | 0.00 | 0.00 | 45 | 1001.5 |
| 20260503223801 | 17 | 178 | 6.4 | 9.7 | 0.00 | 0.00 | 0.00 | 44 | 1001.5 |
| 20260503223300 | 18 | 192 | 6.4 | 9.7 | 0.00 | 0.00 | 0.00 | 44 | 1001.5 |
| 20260503222800 | 18 | 187 | 4.8 | 9.7 | 0.00 | 0.00 | 0.00 | 42 | 1001.5 |
| 20260503222258 | 18 | 200 | 4.8 | 9.7 | 0.00 | 0.00 | 0.00 | 42 | 1001.5 |
| 20260503221757 | 18 | 246 | 6.4 | 11.3 | 0.00 | 0.00 | 0.00 | 42 | 1001.5 |
| 20260503221257 | 18 | 161 | 6.4 | 14.5 | 0.00 | 0.00 | 0.00 | 42 | 1001.6 |
| 20260503220755 | 18 | 163 | 6.4 | 11.3 | 0.00 | 0.00 | 0.00 | 43 | 1001.6 |
| 20260503220254 | 18 | 150 | 6.4 | 11.3 | 0.00 | 0.00 | 0.00 | 42 | 1001.6 |
| 20260503215754 | 18 | 218 | 4.8 | 6.4 | 0.00 | 0.00 | 0.00 | 42 | 1001.6 |
| 20260503215253 | 18 | 168 | 6.4 | 9.7 | 0.00 | 0.00 | 0.00 | 42 | 1001.7 |